Lynchburg, VA

10:06 AM EDT on April 21, 2018 (GMT -0400)
Lynchburg Regional-Glenn

Weather History for KLYH - February, 2012

Change the Weather History Date:

Saturday, February 11, 2012

  Actual Average Record
Temperature  
Mean Temperature 32 °F 37 °F  
Max Temperature 44 °F 48 °F 82 °F (1932)
Min Temperature 20 °F 27 °F -3 °F (1899)
Degree Days  
Heating Degree Days 33 28  
Month to date heating degree days 274 313  
Since 1 July heating degree days 2531 2985  
Cooling Degree Days 0 0  
Month to date cooling degree days 0 0  
Year to date cooling degree days 0 0  
Moisture  
Dew Point 20 °F    
Average Humidity 66    
Maximum Humidity 100    
Minimum Humidity 32    
Precipitation  
Precipitation 0.01 in 0.10 in 2.04 in (2018)
Month to date precipitation 0.46 1.16  
Year to date precipitation 2.68 4.30  
Snow  
Snow 0.00 in - - ()
Month to date snowfall 0.0  
Since 1 July snowfall T  
Snow Depth 0.00 in    
Sea Level Pressure  
Sea Level Pressure 29.85 in    
Wind  
Wind Speed 8 mph (WNW)    
Max Wind Speed 21 mph    
Max Gust Speed 35 mph    
Visibility 9 miles    
Events Rain    
T = Trace of Precipitation, MM = Missing Value Source: NWS Daily Summary

Daily Weather History Graph

Daily Weather History Graph

Search for Another Location

Airport or City:

Astronomy

Feb. 11, 2012 Rise Set
Actual Time 7:10 AM EST 5:51 PM EST
Civil Twilight 6:43 AM EST 6:18 PM EST
Nautical Twilight 6:13 AM EST 6:49 PM EST
Astronomical Twilight 5:42 AM EST 7:19 PM EST
Moon 10:29 PM EST (2/11) 8:59 AM EST (2/11)
Length of Visible Light 11h 34m
Length of Day
10h 40m
Waning Gibbous, 82% of the Moon is Illuminated
Feb 11
Waning Gibbous
Feb 14
Last Quarter
Feb 21
New
Feb 29
First Quarter
Mar 8
Full

Hourly Weather History & Observations

Time (EST) Temp. Windchill Dew Point Humidity Pressure Visibility Wind Dir Wind Speed Gust Speed Precip Events Conditions
12:54 AM 39.9 °F - 37.0 °F 89% 29.88 in 6.0 mi Calm Calm - N/A   Overcast
1:14 AM 39.2 °F 37.0 °F 37.4 °F 93% 29.86 in 6.0 mi NW 3.5 mph - N/A   Overcast
1:34 AM 39.2 °F - 37.4 °F 93% 29.85 in 6.0 mi Calm Calm - 0.00 in Rain Light Rain
1:54 AM 39.0 °F - 36.0 °F 89% 29.85 in 6.0 mi Calm Calm - 0.01 in Rain Light Rain
2:54 AM 37.9 °F - 35.1 °F 89% 29.82 in 10.0 mi Calm Calm - 0.00 in   Overcast
3:54 AM 37.0 °F - 34.0 °F 89% 29.80 in 10.0 mi Calm Calm - N/A   Overcast
4:54 AM 36.0 °F - 33.1 °F 89% 29.79 in 10.0 mi Calm Calm - N/A   Overcast
5:54 AM 36.0 °F - 33.1 °F 89% 29.78 in 10.0 mi Calm Calm - N/A   Overcast
6:54 AM 34.0 °F - 33.1 °F 96% 29.79 in 10.0 mi Calm Calm - N/A   Overcast
7:54 AM 37.0 °F 34.5 °F 32.0 °F 82% 29.80 in 10.0 mi West 3.5 mph - N/A   Overcast
8:54 AM 37.9 °F - 30.9 °F 76% 29.80 in 10.0 mi Calm Calm - N/A   Overcast
9:54 AM 39.9 °F 37.8 °F 30.0 °F 68% 29.80 in 10.0 mi Variable 3.5 mph - N/A   Overcast
10:54 AM 43.0 °F 39.5 °F 26.1 °F 51% 29.77 in 10.0 mi Variable 5.8 mph - N/A   Mostly Cloudy
11:54 AM 42.1 °F 37.1 °F 23.0 °F 47% 29.73 in 10.0 mi WNW 8.1 mph - N/A   Mostly Cloudy
12:54 PM 41.0 °F 34.3 °F 19.9 °F 43% 29.75 in 10.0 mi WNW 11.5 mph 27.6 mph 0.00 in   Partly Cloudy
1:54 PM 37.9 °F 29.2 °F 12.9 °F 36% 29.76 in 10.0 mi WNW 15.0 mph 26.5 mph N/A   Clear
2:54 PM 36.0 °F 27.1 °F 9.0 °F 33% 29.79 in 10.0 mi WNW 13.8 mph 24.2 mph N/A   Clear
3:54 PM 33.1 °F 22.2 °F 8.1 °F 35% 29.81 in 10.0 mi West 17.3 mph 27.6 mph N/A   Clear
4:54 PM 28.9 °F 18.6 °F 5.0 °F 36% 29.85 in 10.0 mi WNW 12.7 mph 26.5 mph N/A   Clear
5:54 PM 25.0 °F 12.6 °F 5.0 °F 43% 29.89 in 10.0 mi WNW 15.0 mph 27.6 mph N/A   Clear
6:54 PM 24.1 °F 12.5 °F 3.0 °F 40% 29.94 in 10.0 mi WNW 12.7 mph 25.3 mph N/A   Mostly Cloudy
7:54 PM 21.9 °F 8.7 °F 1.0 °F 40% 29.96 in 10.0 mi WNW 15.0 mph 23.0 mph N/A   Partly Cloudy
8:54 PM 21.9 °F 9.8 °F 3.9 °F 46% 29.96 in 10.0 mi WNW 12.7 mph 25.3 mph N/A   Clear
9:54 PM 21.0 °F 10.6 °F 1.0 °F 42% 29.98 in 10.0 mi WNW 9.2 mph 20.7 mph N/A   Partly Cloudy
10:54 PM 21.0 °F 11.4 °F -0.0 °F 40% 30.01 in 10.0 mi NW 8.1 mph 20.7 mph N/A   Partly Cloudy
11:54 PM 19.9 °F 5.7 °F -0.9 °F 40% 30.00 in 10.0 mi WNW 16.1 mph 29.9 mph N/A   Clear